Sheboygan Falls, WI

3:37 PM CDT on August 24, 2016 (GMT -0500)
Sheboygan County Memorial

Weather History for KSBM - February, 2013

Change the Weather History Date:

Thursday, February 21, 2013

  Actual Average Record
Temperature  
Mean Temperature 19 °F -  
Max Temperature 26 °F 35 °F 50 °F (2003)
Min Temperature 12 °F 21 °F -12 °F (1963)
Degree Days  
Heating Degree Days 46    
Moisture  
Dew Point 15 °F    
Average Humidity 82    
Maximum Humidity 93    
Minimum Humidity 69    
Precipitation  
Precipitation 0.00 in - - ()
Sea Level Pressure  
Sea Level Pressure 30.34 in    
Wind  
Wind Speed 11 mph (NNE)    
Max Wind Speed 21 mph    
Max Gust Speed 25 mph    
Visibility 10 miles    
Events      
Averages and records for this station are not official NWS values.
T = Trace of Precipitation, MM = Missing Value Source: NWS Daily Summary

Daily Weather History Graph

Daily Weather History Graph

Search for Another Location

Airport or City:

Trip Planner

Search our weather history database for the weather conditions in past years. The results will help you decide how hot, cold, wet, or windy it might be!

Date:

Astronomy

Feb. 21, 2013 Rise Set
Actual Time 6:40 AM CST 5:29 PM CST
Civil Twilight 6:11 AM CST 5:59 PM CST
Nautical Twilight 5:38 AM CST 6:32 PM CST
Astronomical Twilight 5:04 AM CST 7:05 PM CST
Moon 1:39 PM CST (2/21) 3:50 AM CST (2/21)
Length of Visible Light 11h 47m
Length of Day
10h 49m
Waxing Gibbous, 84% of the Moon is Illuminated
Feb 21
Waxing Gibbous
Feb 25
Full
Mar 4
Last Quarter
Mar 11
New
Mar 19
First Quarter

Hourly Weather History & Observations

Time (CST) Temp. Windchill Dew Point Humidity Pressure Visibility Wind Dir Wind Speed Gust Speed Precip Events Conditions
12:27 AM 12.2 °F -1.0 °F 6.8 °F 79% 30.37 in 10.0 mi North 10.4 mph - N/A   Mostly Cloudy
12:53 AM 14.0 °F 1.2 °F 7.0 °F 74% 30.42 in 10.0 mi North 10.4 mph - N/A   Overcast
1:53 AM 12.9 °F -0.2 °F 7.0 °F 77% 30.43 in 10.0 mi NNW 10.4 mph - N/A   Overcast
2:53 AM 12.0 °F -1.3 °F 6.1 °F 77% 30.41 in 10.0 mi North 10.4 mph - N/A   Overcast
3:42 AM 12.2 °F -1.0 °F 6.8 °F 79% 30.37 in 10.0 mi NNW 10.4 mph - N/A   Overcast
3:53 AM 12.9 °F 0.7 °F 7.0 °F 77% 30.43 in 10.0 mi NNW 9.2 mph - N/A   Overcast
4:53 AM 12.9 °F 1.6 °F 7.0 °F 77% 30.44 in 10.0 mi NNW 8.1 mph - N/A   Overcast
5:53 AM 12.9 °F 0.7 °F 8.1 °F 81% 30.45 in 10.0 mi NNW 9.2 mph - N/A   Overcast
6:53 AM 14.0 °F 1.2 °F 10.0 °F 84% 30.39 in 10.0 mi NNE 10.4 mph - N/A   Overcast
7:53 AM 16.0 °F 10.4 °F 12.0 °F 84% 30.44 in 10.0 mi NW 3.5 mph - N/A   Overcast
8:53 AM 17.1 °F 5.8 °F 12.9 °F 84% 30.43 in 10.0 mi NNW 9.2 mph - N/A   Overcast
9:53 AM 19.0 °F 7.5 °F 14.0 °F 81% 30.43 in 10.0 mi NNW 10.4 mph - N/A   Overcast
10:37 AM 19.4 °F 7.9 °F 15.8 °F 86% 30.38 in 10.0 mi North 10.4 mph - N/A   Overcast
10:53 AM 19.9 °F 7.9 °F 16.0 °F 85% 30.42 in 10.0 mi NNW 11.5 mph - N/A   Overcast
11:53 AM 21.0 °F 8.6 °F 17.1 °F 85% 30.42 in 10.0 mi North 12.7 mph - N/A   Overcast
12:53 PM 21.9 °F 11.0 °F 18.0 °F 85% 30.38 in 10.0 mi North 10.4 mph 17.3 mph N/A   Overcast
1:53 PM 23.0 °F 13.1 °F 19.9 °F 88% 30.35 in 10.0 mi North 9.2 mph 16.1 mph N/A   Overcast
2:53 PM 24.1 °F 13.7 °F 21.9 °F 91% 30.32 in 10.0 mi NNE 10.4 mph - N/A   Overcast
3:53 PM 26.1 °F 12.0 °F 23.0 °F 88% 30.32 in 10.0 mi NE 20.7 mph 25.3 mph 0.00 in   Overcast
4:53 PM 26.1 °F 12.3 °F 23.0 °F 88% 30.31 in 10.0 mi ENE 19.6 mph - 0.00 in   Overcast
5:53 PM 25.0 °F 11.7 °F 23.0 °F 92% 30.30 in 10.0 mi ENE 17.3 mph 24.2 mph N/A   Overcast
6:46 PM 24.8 °F 12.4 °F 23.0 °F 93% 30.24 in 10.0 mi ENE 15.0 mph - N/A   Overcast
6:53 PM 25.0 °F 13.1 °F 21.9 °F 88% 30.28 in 10.0 mi East 13.8 mph - N/A   Overcast
7:53 PM 26.1 °F 15.0 °F 21.0 °F 81% 30.27 in 10.0 mi East 12.7 mph - N/A   Overcast
8:53 PM 26.1 °F 13.6 °F 19.9 °F 78% 30.22 in 10.0 mi East 16.1 mph - N/A   Overcast
9:53 PM 26.1 °F 13.6 °F 18.0 °F 71% 30.18 in 10.0 mi East 16.1 mph - N/A   Scattered Clouds
10:26 PM 26.6 °F 14.7 °F 17.6 °F 69% 30.16 in 10.0 mi East 15.0 mph - N/A   Mostly Cloudy
10:53 PM 25.0 °F 13.1 °F 18.0 °F 75% 30.18 in 10.0 mi East 13.8 mph 19.6 mph N/A   Overcast
11:53 PM 24.1 °F 11.5 °F 18.0 °F 77% 30.17 in 10.0 mi East 15.0 mph 21.9 mph N/A   Overcast